PulseSat

PulseSat

MOLNIYA 3-50

Last updated on April 20, 2019, 3:02 a.m. UTC

1 25847U 99036A   19109.17145977  .00000271  00000-0 -37167-2 0  9991
2 25847  62.1261 154.1858 7208010 271.6348  14.7472  2.00665524144933
UTC
Height (km)
Latitude
Longitude
Inclination
Orbital Period

Next 30 passes for location: Hong Kong

Rise time Rise Azimuth (degrees) Set time Set Azimuth (degrees) Duration Max altitude (degrees)

No matching passes for this satellites

PulseSat

PulseSat is the new satellites software and hardware trackering solution by Pulsely.
Satellite Two Line Element Set source: US Air Force Space Command

Download PulseSat for iOS
© 2017 Pulsely Limited